Regional Weather Roundup
Issued by NWS Sioux Falls, SD

Home | Current Version | Previous Version | Text Only | Print | Product List | Glossary On
Versions: 1 2 3 4 5 6 7 8 9 10 11 12 13 14 15 16 17 18 19 20 21 22 23 24 25 26 27 28 29 30 31 32 33 34 35 36 37 38 39 40 41 42 43 44 45 46 47 48 49 50
000
ASUS43 KFSD 251410
RWRFSD

WEATHER ROUNDUP FOR SE SOUTH DAKOTA/SW MINNESOTA/NW IOWA
NATIONAL WEATHER SERVICE SIOUX FALLS SD
900 AM CDT SAT APR 25 2015

NOTE: "FAIR" INDICATES FEW OR NO CLOUDS BELOW 12,000 FEET WITH NO
SIGNIFICANT WEATHER AND OR OBSTRUCTIONS TO VISIBILITY.


SDZ038>040-050-052>070-251500-
SOUTHEAST SOUTH DAKOTA

CITY           SKY/WX    TMP DP  RH WIND       PRES   REMARKS
BROOKINGS      CLOUDY    43  39  87 E17       29.75R
CHAMBERLAIN    CLOUDY    47  46  95 NE9       29.71R FOG
HURON          CLOUDY    47  44  90 E13       29.74R FOG
MADISON        CLOUDY    43  43 100 E20G26    29.72R
MITCHELL       LGT RAIN  48  46  93 E8        29.72R FOG
SIOUX FALLS    CLOUDY    46  41  82 E17       29.72R
WINNER         FOG       51  49  92 E12       29.69R VSB 1/2
YANKTON        CLOUDY    46  41  81 E17       29.68R
$$

MNZ071-072-080-081-089-090-097-098-251500-
SOUTHWEST MINNESOTA

CITY           SKY/WX    TMP DP  RH WIND       PRES   REMARKS
FAIRMONT       CLOUDY    43  10  26 E14       29.75S
JACKSON        CLOUDY    43  36  75 E16       29.75R
LUVERNE        CLOUDY    45  39  81 E18G24    29.73R HAZE
MARSHALL       CLOUDY    43  36  75 SE15G22   29.78R
MONTEVIDEO     CLOUDY    45  43  93 SE13      29.81R
PIPESTONE      CLOUDY    43  39  87 E16       29.73R
REDWOOD FALLS  CLOUDY    44  37  76 E12G21    29.80R
TRACY          CLOUDY    45  39  81 E15       29.77S
WINDOM         CLOUDY    43  37  81 E15G22    29.76R
WORTHINGTON    CLOUDY    43  36  75 E18       29.74S
$$

IAZ001>003-012>014-020>022-031-032-NEZ013-014-SDZ071-251500-
NORTHWEST IOWA

CITY           SKY/WX    TMP DP  RH WIND       PRES   REMARKS
CHEROKEE       CLOUDY    43  42  96 NE15G22   29.67F FOG
DENISON        LGT RAIN  45  45 100 NE20G28   29.58S
ESTHERVILLE    CLOUDY    42  37  82 E17       29.74R
LE MARS        CLOUDY    46  41  81 NE15G26   29.69R
ORANGE CITY    CLOUDY    43  37  81 E16G23    29.69R FOG
SHELDON        CLOUDY    45  41  87 E21       29.70R
SIOUX CITY     CLOUDY    46  42  86 NE20G25   29.63S FOG
SPENCER        CLOUDY    44  38  79 E17       29.72R
STORM LAKE     CLOUDY    43  41  93 NE20G29   29.67R FOG
$$

ABBREVIATIONS USED IN REMARKS
   TC - TEMPERATURE IN CELSIUS
  WCI - WIND CHILL INDEX
   HX - HEAT INDEX
  VSB - VISIBILITY



USA.gov is the U.S. government's official web portal to all federal, state and local government web resources and services.